Regional Weather Roundup
Issued by NWS Charleston, SC

Home | Current Version | Previous Version | Text Only | Print | Product List | Glossary On
Versions: 1 2 3 4 5 6 7 8 9 10 11 12 13 14 15 16 17 18 19 20 21 22 23 24 25 26 27 28 29 30 31 32 33 34 35 36 37 38 39 40 41 42 43 44 45 46 47 48 49 50
000
ASUS42 KCHS 230825
RWRCHS

REGIONAL WEATHER ROUNDUP
NATIONAL WEATHER SERVICE CHARLESTON SC
400 AM EDT WED JUL 23 2014

NOTE: "FAIR" INDICATES FEW OR NO CLOUDS BELOW 12,000 FEET WITH NO
SIGNIFICANT WEATHER AND/OR OBSTRUCTIONS TO VISIBILITY.

NOT ALL STATIONS ARE QUALITY CONTROLLED BY THE NATIONAL
WEATHER SERVICE. USE DATA WITH CAUTION...ESPECIALLY
DEWPOINT OBSERVATIONS.

SCZ027-030-031-034>040-042>050-230900-
...SOUTH CAROLINA...

CITY           SKY/WX    TMP DP  RH WIND       PRES   REMARKS
N CHARLESTON   PTCLDY    76  73  91 CALM      30.06S
WATERFRONT PRK   N/A     79 N/A N/A CALM        N/A
FORT JOHNSON   NOT AVBL
MOUNT PLEASANT FAIR      73  73 100 CALM      30.06S
JOHNS ISLAND   MOSUNNY   75  64  69 CALM      30.06S
PINOPOLIS        N/A     79  73  83 MISG      30.00R
MONCKS CORNER    N/A     73  73 100 CALM      30.06S
SUMMERVILLE    CLOUDY    72  72 100 CALM      30.07S FOG
BEAUFORT MCAS  PTCLDY    76  73  91 CALM      30.06F
BEAUFORT ARPT  FAIR      75  75 100 CALM      30.05F
HILTON HEAD IS PTCLDY    75  75 100 CALM      30.06F
GEORGETOWN     NOT AVBL
WALTERBORO     FOG       73 N/A N/A CALM      30.07S VSB 1/4
ORANGEBURG     FOG       75  73  93 CALM      30.07S VSB 3/4
BARNWELL       FAIR      73  73 100 SW3       30.07F
AIKEN          CLOUDY    73  73 100 CALM      30.10S
MANNING        PTSUNNY   72 N/A N/A MISG      30.07S
KINGSTREE      NOT AVBL
COLUMBIA       CLEAR     76  72  87 CALM      30.06S
SUMTER         CLEAR     73  73 100 SE2       30.05S
FLORENCE       CLEAR     75  73  93 CALM      30.06F
MYRTLE BEACH   CLEAR     75  72  88 CALM      30.06S
N MYRTLE BEACH PTCLDY    76  73  91 NW3       30.06F

$$

GAZ063-065-086>088-099>101-113>116-118-119-134-136>141-150-230900-
...GEORGIA...

CITY           SKY/WX    TMP DP  RH WIND       PRES   REMARKS
SAVANNAH ARPT  CLEAR     75  73  93 CALM      30.06F
HUNTER AAF     PTCLDY    75  75 100 CALM      30.04F
FORT STEWART   CLEAR     73  72  96 CALM      30.06S
STATESBORO     NOT AVBL
SYLVANIA       PTSUNNY   74  74 100 CALM      30.08S FOG
CLAXTON        FAIR     N/A N/A N/A CALM      30.07F
THOMSON        MOCLDY    75  75 100 CALM      30.11S
AUGUSTA-BUSH   PTCLDY    72  71  97 S5        30.06F
AUGUSTA-DANIEL MOCLDY    76  73  91 S6        30.07F
SWAINSBORO     CLOUDY    75  75 100 CALM      30.08S
VIDALIA          N/A     73  73 100 E3        30.07F
ALMA           FOG       70  69  97 CALM      30.05F VSB 1/2
WAYCROSS       CLEAR     76  76  99 CALM      30.05F FOG
JESUP          NOT AVBL
BRUNSWICK      CLEAR     75  72  88 CALM      30.06S
SAINT SIMONS   CLEAR     77  75  93 NW5       30.05S

$$

SCZ027-028-034-036>038-045-046-048>050-GAZ119-141-230900-
...LAKE AND SUPPLEMENTAL COASTAL OBSERVATIONS...

STATION/POSITION TIME  TEMP    WIND        PRES    WAVE   SWELL
                       AIR SEA DIR/SP/G            HT/PER HT/PER/DIR
                 (UTC) (F)     (DEG/KT/KT) (MB)    (FT/S) (FT/S/D)
UPR LAKE MARION  NOT AVBL
WINYAH BAY       0800   75     320/  2     1017.0F
LAKE MURRAY      0800   76      CALM  /  2 1017.3S
ACE BASIN NERRS  0800   75        CALM     1018.0S
FORT PULASKI     0800   78     320/  4/  5 1017.9F
SAPELO ISLAND    0800   77     360/  3     1018.0S

$$

ANZ835-935-AMZ111-154-330-350-352-354-374-450-454-472-230900-
...C-MAN AND BUOY OBSERVATIONS...

STATION/POSITION TIME  TEMP    WIND        PRES    WAVE   SWELL
                       AIR SEA DIR/SP/G            HT/PER HT/PER/DIR
                 (UTC) (F)     (DEG/KT/KT) (MB)    (FT/S) (FT/S/D)
FOLLY BEACH CMAN 0800   78      CALM  /  1 1018.1F
BUOY 41004       0800   81 82  260/  6/  8 1016.9F   3/ 8   3/ 8
BUOY 41008       0800   82 84  200/  6/  6 1017.5F   3/ 7   2/120/ 7
5E ST. MARYS GA  0800      84                N/A     3/ 7
FRYING PAN BUOY  NOT AVBL
BUOY 41025       0800          VRB 16/ 17  1017.6S   4/ 5   2/150/ 7
CAPE LOOKOUT NC  0800   78     240/  9/ 12 1017.7F
BUOY 41002       0653   82 82  210/ 12/ 14 1020.4S   4/ 6   2/150/ 6
BUOY 41010       0800   83 84  160/ 16/ 17 1017.7F   4/ 7   2/ 40/11
BUOY 41012       NOT AVBL
ST AUGUSTINE FL  0800   78     240/  3/  3 1017.9F
CAPERS NEARSHORE 0700   81     210/  6/  6   N/A
FRIPP NEARSHORE  NOT AVBL


$$


USA.gov is the U.S. government's official web portal to all federal, state and local government web resources and services.